Weather reports worldwide

Advertisment
Seehausen, Germany (10261): temperature & dewpoint: 25.05.2020 00:00:00 - 31.05.2020 00:00:00 (CEST)Seehausen, Germany (10261): temperature 5cm & temperature -5cm: 25.05.2020 00:00:00 - 31.05.2020 00:00:00 (CEST)Seehausen, Germany (10261): temperature -20cm & temperature -100cm: 25.05.2020 00:00:00 - 31.05.2020 00:00:00 (CEST)Seehausen, Germany (10261): wind speed & gusts: 25.05.2020 00:00:00 - 31.05.2020 00:00:00 (CEST)Seehausen, Germany (10261): wind direction: 25.05.2020 00:00:00 - 31.05.2020 00:00:00 (CEST)Seehausen, Germany (10261): reduced air pressure: 25.05.2020 00:00:00 - 31.05.2020 00:00:00 (CEST)Seehausen, Germany (10261): visibility: 25.05.2020 00:00:00 - 31.05.2020 00:00:00 (CEST)Seehausen, Germany (10261): sunshine duration: 25.05.2020 00:00:00 - 31.05.2020 00:00:00 (CEST)Seehausen, Germany (10261): precipitation: 25.05.2020 00:00:00 - 31.05.2020 00:00:00 (CEST)
Date & Time tt [°C] td [°C] tt 5cm [°C] tt -5cm [°C] tt -20cm [°C] tt -100cm [°C] ff [km/h] ff [kn] fx [km/h] fx [kn] dd ppp [hPa] vv [km] sd [min] rr [mm]
31.05.2020 00:00:00 10,5 3,4 8,8 14,6 18,3 14,5 11 6 17 9 NNE 1024,6 75 0 0,0
30.05.2020 23:00:00 11,7 3,1 9,8 15,8 18,7 14,5 11 6 28 15 NNE 1024,6 75 0 0,0
30.05.2020 22:00:00 13,7 3,4 12,3 17,1 19,0 14,5 21 11 30 16 NE 1024,3 73 6 0,0
30.05.2020 21:00:00 15,3 3,8 14,6 18,6 19,3 14,5 21 11 40 22 NNE 1023,8 70 38 0,0
30.05.2020 20:00:00 17,1 3,9 17,7 20,3 19,4 14,5 22 12 37 20 NE 1023,9 75 41 0,0
30.05.2020 19:00:00 16,8 3,5 16,9 21,7 19,4 14,5 27 15 41 22 NE 1023,9 62 42 0,0
30.05.2020 18:00:00 18,3 4,3 20,6 21,6 19,3 14,5 28 15 40 22 NE 1024,0 58 31 0,0
30.05.2020 17:00:00 18,1 4,3 19,7 22,4 19,2 14,5 23 12 43 23 ENE 1024,0 58 10 0,0
30.05.2020 16:00:00 19,1 2,6 22,3 22,9 19,1 14,5 19 10 35 19 NNE 1024,2 57 17 0,0
30.05.2020 15:00:00 18,2 3,4 19,8 21,7 18,9 14,5 20 11 32 17 NE 1024,8 66 0 0,0
30.05.2020 14:00:00 18,8 2,6 20,9 23,9 18,5 14,4 22 12 44 24 NNE 1025,1 55 15 0,0
30.05.2020 13:00:00 20,3 3,7 25,6 24,2 18,0 14,4 21 11 40 22 NNE 1025,5 62 34 0,0
30.05.2020 12:00:00 19,6 2,9 23,4 23,3 17,4 14,4 25 14 41 22 NE 1025,9 37 40 0,0
30.05.2020 11:00:00 18,4 2,4 22,1 22,6 16,8 14,4 20 11 34 18 NE 1026,0 47 59 0,0
30.05.2020 10:00:00 17,0 1,8 22,1 20,3 16,3 14,4 16 9 24 13 NE 1026,3 75 60 0,0
30.05.2020 09:00:00 15,1 4,3 19,1 17,4 16,1 14,4 10 5 16 8 ENE 1026,9 65 53 0,0
30.05.2020 08:00:00 11,8 6,1 13,8 14,5 16,2 14,3 5 3 6 3 WNW 1027,1 56 0 0,0
30.05.2020 07:00:00 10,5 6,4 10,8 13,8 16,4 14,3 4 2 6 3 NNW 1027,2 59 0 0,0
30.05.2020 06:00:00 10,1 5,8 10,1 13,6 16,7 14,3 3 2 5 3 NNW 1027,3 53 0 0,0
30.05.2020 05:00:00 9,4 5,4 9,2 13,5 17,0 14,3 5 3 8 4 NW 1027,1 54 0 0,0
30.05.2020 04:00:00 8,7 4,7 8,3 13,4 17,4 14,3 2 1 8 5 NNW 1027,1 61 0 0,0
30.05.2020 03:00:00 7,0 3,3 6,0 13,2 17,9 14,2 4 2 7 4 NW 1027,0 60 0 0,0
30.05.2020 02:00:00 7,8 3,4 4,9 14,1 18,4 14,2 3 1 4 2 NW 1027,1 62 0 0,0
30.05.2020 01:00:00 8,9 3,5 6,0 15,1 18,9 14,2 0 0 4 2 N 1027,0 71 0 0,0
30.05.2020 00:00:00 10,6 3,7 7,7 16,2 19,4 14,2 4 2 6 3 NW 1027,0 59 0 0,0
29.05.2020 23:00:00 13,1 2,5 9,4 17,5 19,9 14,2 5 3 16 9 NNE 1026,8 71 0 0,0
29.05.2020 22:00:00 15,6 4,1 13,9 19,0 20,4 14,2 13 7 21 11 NNE 1026,7 75 2 0,0
29.05.2020 21:00:00 17,1 5,4 15,6 21,0 20,6 14,2 9 5 21 11 NE 1026,4 59 34 0,0
29.05.2020 20:00:00 19,1 5,6 19,7 23,1 20,7 14,2 14 8 25 13 NE 1026,4 69 35 0,0
29.05.2020 19:00:00 20,7 1,6 23,4 24,8 20,7 14,2 15 8 23 12 N 1026,6 71 50 0,0
29.05.2020 18:00:00 19,7 2,6 20,0 25,1 20,6 14,2 12 7 18 10 NNE 1026,9 66 21 0,0
29.05.2020 17:00:00 20,2 2,3 22,2 27,1 20,2 14,2 8 4 25 13 N 1027,3 75 34 0,0
29.05.2020 16:00:00 19,7 1,5 23,0 28,6 19,5 14,2 10 6 24 13 NNE 1028,0 75 51 0,0
29.05.2020 15:00:00 19,6 2,3 24,7 25,9 19,0 14,2 8 4 19 11 NE 1028,6 75 14 0,0
29.05.2020 14:00:00 20,4 3,2 25,7 28,6 18,1 14,2 7 4 23 13 N 1029,3 57 54 0,0
29.05.2020 13:00:00 18,6 2,4 25,9 26,9 17,2 14,2 9 5 21 11 N 1029,9 57 60 0,0
29.05.2020 12:00:00 18,7 1,9 25,2 25,1 16,3 14,1 9 5 16 9 ENE 1030,5 75 60 0,0
29.05.2020 11:00:00 17,4 2,7 23,1 22,5 15,5 14,1 7 4 18 10 SE 1030,8 73 60 0,0
29.05.2020 10:00:00 16,1 4,9 21,2 19,5 15,0 14,1 6 4 16 8 E 1030,9 75 60 0,0
29.05.2020 09:00:00 14,0 5,7 17,8 16,4 14,7 14,1 10 5 16 9 SE 1031,0 66 60 0,0
29.05.2020 08:00:00 12,1 5,5 14,1 13,6 14,7 14,1 4 2 8 4 E 1031,2 53 60 0,0
29.05.2020 07:00:00 8,5 5,0 9,2 11,1 15,0 14,1 3 2 4 2 WNW 1031,3 56 60 0,0
29.05.2020 06:00:00 5,2 3,6 3,9 10,1 15,5 14,0 2 1 4 2 W 1031,2 45 33 0,0
29.05.2020 05:00:00 4,6 3,5 2,9 10,5 15,9 14,0 3 1 4 2 WNW 1031,1 46 0 0,0
29.05.2020 04:00:00 5,2 4,0 3,3 11,2 16,4 14,0 0 0 5 3 N 1031,3 40 0 0,0
29.05.2020 03:00:00 6,2 4,7 3,9 12,0 17,0 14,0 3 1 4 2 SW 1031,1 44 0 0,0
29.05.2020 02:00:00 7,2 5,3 4,6 12,9 17,5 14,0 3 2 6 3 NW 1031,0 47 0 0,0
29.05.2020 01:00:00 8,7 5,9 5,7 14,0 18,0 14,0 4 2 8 4 NW 1030,9 55 0 0,0
29.05.2020 00:00:00 10,3 6,4 7,1 15,2 18,5 14,0 3 1 12 6 N 1030,7 56 0 0,0
28.05.2020 23:00:00 13,1 6,9 11,2 16,6 19,0 14,0 11 6 23 12 N 1030,5 54 0 0,0
28.05.2020 22:00:00 14,8 6,7 13,3 18,0 19,4 14,0 13 7 21 11 NE 1030,4 57 1 0,0
28.05.2020 21:00:00 16,6 6,1 15,7 19,9 19,6 14,0 15 8 34 18 NNE 1029,8 63 58 0,0
28.05.2020 20:00:00 18,7 3,8 19,8 22,1 19,6 14,0 21 12 32 18 N 1029,6 53 60 0,0
28.05.2020 19:00:00 19,4 4,6 21,2 23,5 19,5 14,0 22 12 35 19 N 1029,5 64 60 0,0
28.05.2020 18:00:00 19,8 4,1 22,2 24,5 19,2 14,0 24 13 37 20 NNW 1029,7 59 60 0,0
28.05.2020 17:00:00 20,2 4,4 23,8 24,8 18,8 14,0 21 11 41 22 N 1029,9 49 60 0,0
28.05.2020 16:00:00 19,9 4,3 24,1 24,2 18,4 13,9 21 11 35 19 N 1030,2 58 39 0,0
28.05.2020 15:00:00 18,4 3,9 21,4 23,6 17,9 13,9 20 11 32 18 N 1030,6 51 28 0,0
28.05.2020 14:00:00 18,8 4,3 24,6 24,5 17,2 13,9 19 10 35 19 N 1030,8 56 41 0,0
28.05.2020 13:00:00 18,0 4,0 24,2 24,4 16,5 13,9 24 13 35 19 N 1031,2 23 55 0,0
28.05.2020 12:00:00 18,0 5,9 23,0 22,8 15,7 13,9 19 10 30 16 NNW 1031,4 58 60 0,0
28.05.2020 11:00:00 15,9 5,3 21,0 20,7 15,1 13,9 16 9 32 17 NNW 1031,8 41 60 0,0
28.05.2020 10:00:00 14,2 7,0 19,8 18,0 14,7 13,9 13 7 29 16 NW 1031,8 32 59 0,0
28.05.2020 09:00:00 12,7 7,1 16,1 15,1 14,5 13,9 17 9 27 14 NNW 1032,2 33 60 0,0
28.05.2020 08:00:00 11,1 7,0 13,4 12,9 14,6 13,9 19 11 28 15 NW 1032,2 39 60 0,0
28.05.2020 07:00:00 9,6 6,6 10,6 11,3 14,9 13,8 16 8 28 15 NW 1032,1 30 60 0,0
28.05.2020 06:00:00 8,9 6,3 7,9 10,8 15,2 13,8 13 7 23 12 WNW 1031,9 35 23 0,0
28.05.2020 05:00:00 9,1 6,9 7,9 11,2 15,6 13,8 14 8 23 12 WNW 1031,7 35 0 0,0
28.05.2020 04:00:00 9,8 7,3 8,3 11,8 16,1 13,8 13 7 22 12 WNW 1031,7 37 0 0,0
28.05.2020 03:00:00 10,5 6,9 9,0 12,5 16,5 13,8 13 7 24 13 NW 1031,8 44 0 0,0
28.05.2020 02:00:00 11,9 7,3 10,7 13,5 16,9 13,8 18 10 26 14 NW 1031,8 42 0 0,0
28.05.2020 01:00:00 12,9 8,6 12,2 14,7 17,2 13,8 14 8 19 10 NNW 1031,3 52 0 0,0
28.05.2020 00:00:00 13,5 9,2 12,1 15,7 17,5 13,8 15 8 29 16 N 1031,7 15 0 0,1
27.05.2020 23:00:00 14,9 7,9 14,4 16,4 17,8 13,8 12 6 25 14 NNW 1031,1 61 0 0,0
27.05.2020 22:00:00 15,8 8,5 15,5 17,1 18,1 13,8 15 8 29 15 N 1030,9 65 0 0,0
27.05.2020 21:00:00 17,0 9,1 16,5 18,2 18,3 13,8 23 12 33 18 N 1029,9 46 0 0,0
27.05.2020 20:00:00 18,6 10,5 18,4 19,3 18,4 13,8 19 11 35 19 N 1029,6 43 1 0,0
27.05.2020 19:00:00 20,0 8,0 20,4 19,8 18,6 13,8 16 8 26 14 WNW 1029,8 43 0 0,0
27.05.2020 18:00:00 20,6 8,0 21,2 20,7 18,6 13,8 16 9 24 13 WNW 1030,0 49 0 0,0
27.05.2020 17:00:00 20,8 7,8 21,3 21,4 18,5 13,7 14 8 23 12 WNW 1030,4 61 3 0,0
27.05.2020 16:00:00 22,5 7,4 26,6 23,2 18,2 13,7 15 8 26 14 WNW 1030,5 56 23 0,0
27.05.2020 15:00:00 21,4 5,2 24,6 24,1 17,8 13,7 16 8 27 15 WNW 1031,1 50 26 0,0
27.05.2020 14:00:00 21,3 5,8 24,7 23,8 17,2 13,7 13 7 29 16 WNW 1031,6 64 31 0,0
27.05.2020 13:00:00 20,6 5,4 24,3 24,2 16,5 13,7 19 10 31 17 W 1032,1 41 49 0,0
27.05.2020 12:00:00 20,1 7,7 25,2 21,5 15,8 13,7 11 6 29 15 WNW 1032,6 44 23 0,0
27.05.2020 11:00:00 20,0 8,5 25,6 20,9 15,2 13,7 8 4 17 9 W 1032,8 48 31 0,0
27.05.2020 10:00:00 19,1 10,2 24,9 20,2 14,6 13,7 6 3 11 6 W 1033,1 65 60 0,0
27.05.2020 09:00:00 16,4 10,4 20,1 17,0 14,2 13,7 3 2 5 3 NNW 1033,4 44 60 0,0
27.05.2020 08:00:00 12,6 8,9 14,1 14,1 14,1 13,7 3 1 4 2 N 1033,7 31 60 0,0
27.05.2020 07:00:00 10,2 7,8 9,9 11,6 14,3 13,7 0 0 4 2 N 1033,7 24 60 0,0
27.05.2020 06:00:00 8,1 6,8 7,2 10,4 14,7 13,7 0 0 3 2 N 1033,8 19 25 0,0
27.05.2020 05:00:00 7,4 6,8 5,8 10,6 15,1 13,6 0 0 6 3 N 1033,9 21 0 0,0
27.05.2020 04:00:00 7,8 7,2 6,2 11,2 15,5 13,6 0 0 4 2 N 1034,2 24 0 0,0
27.05.2020 03:00:00 8,6 7,8 6,6 11,9 15,9 13,6 2 1 4 2 SSW 1034,4 24 0 0,0
27.05.2020 02:00:00 9,6 8,4 7,8 12,9 16,3 13,6 3 1 4 2 SW 1034,6 34 0 0,0
27.05.2020 01:00:00 10,5 8,9 8,8 13,7 16,8 13,6 3 2 5 3 W 1034,7 47 0 0,0
27.05.2020 00:00:00 11,1 9,2 9,9 14,4 17,2 13,6 3 1 4 2 WSW 1034,8 48 0 0,0
26.05.2020 23:00:00 11,9 9,7 10,0 15,2 17,7 13,6 3 2 4 2 W 1034,8 49 0 0,0
26.05.2020 22:00:00 14,0 10,2 11,2 16,5 18,1 13,7 3 1 14 8 W 1034,6 57 0 0,0
26.05.2020 21:00:00 16,9 10,1 15,7 18,1 18,4 13,7 13 7 20 11 NNE 1034,2 57 30 0,0
26.05.2020 20:00:00 18,3 9,6 17,7 19,7 18,6 13,7 10 5 21 11 N 1034,0 56 36 0,0
26.05.2020 19:00:00 19,2 9,0 19,7 20,8 18,6 13,7 11 6 23 12 NNE 1034,1 54 11 0,0
26.05.2020 18:00:00 20,0 7,7 21,2 23,5 18,4 13,7 16 9 27 14 N 1034,2 61 40 0,0
26.05.2020 17:00:00 20,9 7,3 25,5 24,2 17,9 13,7 13 7 24 13 NNW 1034,2 70 48 0,0
26.05.2020 16:00:00 19,7 7,8 23,1 24,2 17,4 13,7 11 6 27 15 NNW 1034,5 56 47 0,0
26.05.2020 15:00:00 19,0 8,3 21,8 25,1 16,7 13,8 16 8 26 14 NNW 1034,8 55 48 0,0
26.05.2020 14:00:00 18,2 8,4 21,3 24,3 15,8 13,8 15 8 29 16 NNW 1035,1 46 45 0,0
26.05.2020 13:00:00 18,3 8,8 25,1 24,5 14,8 13,8 10 5 21 12 NW 1035,2 59 54 0,0
26.05.2020 12:00:00 16,9 9,2 23,2 22,5 13,8 13,8 13 7 21 11 NW 1035,6 49 56 0,0
26.05.2020 11:00:00 16,3 10,6 21,4 19,2 13,1 13,8 11 6 19 10 N 1035,6 41 59 0,0
26.05.2020 10:00:00 14,3 10,1 19,7 17,1 12,5 13,8 8 5 13 7 NNW 1035,6 29 53 0,0
26.05.2020 09:00:00 12,1 9,3 15,3 13,7 12,2 13,8 8 4 15 8 NW 1035,4 19 35 0,0
26.05.2020 08:00:00 10,4 8,7 11,5 11,4 12,1 13,8 10 6 16 9 NNW 1035,2 14 46 0,0
26.05.2020 07:00:00 9,3 7,9 9,6 9,8 12,2 13,9 8 4 11 6 NW 1034,9 14 60 0,0
26.05.2020 06:00:00 7,2 6,5 6,1 8,6 12,5 13,9 6 3 11 6 WNW 1034,4 9 16 0,0
26.05.2020 05:00:00 7,5 6,8 6,3 8,9 12,8 13,9 9 5 13 7 WNW 1034,1 11 0 0,0
26.05.2020 04:00:00 7,9 7,0 6,6 9,4 13,1 13,9 8 5 14 8 WNW 1033,9 17 0 0,0
26.05.2020 03:00:00 8,7 7,2 7,5 9,9 13,3 13,9 9 5 16 9 WNW 1033,7 25 0 0,0
26.05.2020 02:00:00 9,4 7,6 8,0 10,5 13,6 13,9 10 5 17 9 WNW 1033,5 30 0 0,0
26.05.2020 01:00:00 10,8 8,0 9,7 11,4 13,8 13,9 12 6 24 13 WNW 1033,5 35 0 0,0
26.05.2020 00:00:00 11,6 8,3 10,8 11,9 14,0 14,0 16 9 28 15 WNW 1033,2 37 0 0,0
25.05.2020 23:00:00 12,3 8,5 11,2 12,3 14,1 14,0 16 9 26 14 WNW 1032,8 41 0 0,0
25.05.2020 22:00:00 13,3 9,2 12,8 13,2 14,2 14,0 10 5 19 10 WNW 1032,4 46 0 0,0
25.05.2020 21:00:00 13,8 8,8 13,4 13,6 14,3 14,0 15 8 21 11 WNW 1031,7 52 0 0,0
25.05.2020 20:00:00 14,0 9,0 14,0 14,0 14,3 14,0 13 7 22 12 NW 1031,2 47 0 0,0
25.05.2020 19:00:00 14,0 8,9 14,0 14,2 14,4 14,0 13 7 29 16 NW 1030,8 58 0 0,0
25.05.2020 18:00:00 14,2 8,8 14,6 14,7 14,3 14,1 17 9 29 15 WNW 1030,4 51 0 0,0
25.05.2020 17:00:00 14,0 8,6 14,6 14,8 14,3 14,1 15 8 32 17 WNW 1030,2 64 0 0,0
25.05.2020 16:00:00 14,4 8,6 15,0 16,0 14,0 14,1 21 12 30 16 NW 1029,8 59 0 0,0
25.05.2020 15:00:00 14,4 8,5 16,0 15,4 13,8 14,1 21 11 36 20 NW 1029,5 49 0 0,0
25.05.2020 14:00:00 13,9 8,4 15,3 15,6 13,5 14,1 20 11 32 17 WNW 1029,0 50 6 0,0
25.05.2020 13:00:00 13,2 8,2 14,4 14,9 13,3 14,1 24 13 34 19 NW 1028,7 45 1 0,0
25.05.2020 12:00:00 13,0 7,9 14,8 14,9 13,1 14,1 23 13 37 20 NW 1028,4 45 3 0,0
25.05.2020 11:00:00 11,7 7,9 12,0 12,9 13,0 14,2 19 10 29 16 NW 1028,0 47 0 0,0
25.05.2020 10:00:00 10,2 8,5 10,7 12,0 12,9 14,2 17 9 43 23 WNW 1027,9 10 0 0,1
25.05.2020 09:00:00 11,2 7,2 10,6 11,6 12,9 14,2 22 12 36 19 W 1027,0 37 0 0,0
25.05.2020 08:00:00 11,0 7,4 10,4 11,3 13,0 14,2 25 13 35 19 WNW 1026,4 41 0 0,1
25.05.2020 07:00:00 11,0 7,9 11,0 10,9 13,1 14,2 19 10 29 16 WNW 1026,1 37 0 0,0
25.05.2020 06:00:00 10,8 7,9 10,6 10,6 13,2 14,2 20 11 32 17 W 1025,7 40 0 0,0
25.05.2020 05:00:00 11,0 8,0 10,7 10,7 13,3 14,2 21 12 34 19 W 1025,4 40 0 0,0
25.05.2020 04:00:00 11,3 8,3 11,0 10,9 13,5 14,2 20 11 34 19 W 1025,0 42 0 0,0
25.05.2020 03:00:00 11,3 8,6 10,9 10,7 13,7 14,2 22 12 35 19 W 1024,9 38 0 0,0
25.05.2020 02:00:00 10,8 7,9 10,4 10,4 14,0 14,2 16 9 24 13 W 1025,0 43 0 0,0
25.05.2020 01:00:00 10,9 7,3 9,8 10,1 14,4 14,3 19 10 29 16 W 1025,2 43 0 0,0
25.05.2020 00:00:00 11,1 7,7 9,6 10,9 14,7 14,3 14 7 21 11 W 1025,1 53 0 0,0

tt = temperature
td = dewpoint
tt 5cm = temperature 5cm
tt -5cm = temperature -5cm
tt -20cm = temperature -20cm
tt -100cm = temperature -100cm
ff = wind speed
fx = gusts
dd = wind direction
ppp = reduced air pressure
vv = visibility
sd = sunshine duration
rr = precipitation

Next stations